Location: Azul
(36.7830°S, 59.8500°W)
Time: 10:21:47
(UTC-03:00)

ISS - Pass Details

Date: 21 August 2019
Orbit: 410 x 420 km, 51.6° (Epoch: 21 August)

Event Time Altitude Azimuth Distance (km) Brightness Sun altitude
Rises 19:14:12 0° 325° (NW) 2,356 0.8 -9.4°
Reaches altitude 10° 19:16:19 10° 330° (NNW) 1,498 -0.4 -9.9°
Maximum altitude 19:19:34 47° 45° (NE) 567 -3.4 -10.5°
Enters shadow 19:22:02 16° 115° (ESE) 1,198 -2.0 -11.0°
